Weather in Skała

Poland     50°13′54″N   19°51′09″E
temp.,
°C
wind,
m/s
gust,
m/s
humid.,
%
clouds,
%
prec.,
mm/h
press.,
hPa
HPBL,
m
18 april, sun
sun1823:00+2w12100100 0.4 102186
02:00+2nw11100100 0.4 102050
05:00+2wsw1197100 0.1 102029
08:00+3ese1296100 0.1 1020172
11:00+5ese3486100 0.0 1020620
14:00+7ese4573100 0.1 1019977
17:00+7e2579100 0.0 1019542
20:00+6ne2385100 0.0 102055
19 april, mon
mon1923:00+6ne2383100 0.0 101954
02:00+5nne3486100 0.0 101979
05:00+5ne2487100 0.0 1018101
08:00+6ne2698100 2.7 1018284
11:00+6ese1295100 1.2 1017256
14:00+10e3578100 1.4 1016812
17:00+10ene5677100 0.8 1015847
20:00+7ene41089100 1.6 1016498
20 april, tue
tue2023:00+5ene3991100 0.1 1016231
02:00+5ne249196 0.1 101595
05:00+5ne2492100 0.1 1015103
08:00+7ne3588100 0.4 1015441
11:00+8ene4484100 0.5 1015682
14:00+7e348693 1.0 1015546
17:00+10ene236660 0.1 10131062
20:00+7ne228565 0.3 101431
21 april, wed
wed2123:00+6e118282 0.0 101510
02:00+5wsw118486 0.0 101410
05:00+6w228983 0.0 101445
08:00+7w238897 0.3 1015215
11:00+7wnw238798 1.0 1015472
14:00+12wsw345618 1.3 10131519
17:00+14w244632 0.1 10121776
20:00+9wsw226547 0.1 101312
22 april, thu
thu2223:00+8wsw3688100 0.3 1014151
02:00+7wsw379283 0.6 1014158
05:00+5w379436 0.0 1015153
08:00+7wnw3488100 0.0 1016509
11:00+6nw3488100 0.1 1017567
14:00+4nw5693100 1.4 1018447
17:00+4w3582100 0.1 1018369
20:00+3sw36917 0.1 1020123